Other Surface Observations
Issued by NWS Upton, NY

Current Version | Previous Version | Text Only | Print | Product List | Glossary Off
Versions: 1 2 3 4 5 6 7 8 9 10 11 12 13 14 15 16 17 18 19 20 21 22 23 24 25 26 27 28 29 30 31 32 33 34 35 36 37 38 39 40 41 42 43 44 45 46 47 48 49 50
000 SXUS51 KOKX 141157 OSOOKX NEW YORK CITY METROPOLITAN WEATHER ROUNDUP NATIONAL WEATHER SERVICE NEW YORK NY 700 AM EST SUN FEB 14 2016 CITY SKY/WX TMP DP RH WIND PRES REMARKS CENTRAL PARK CLEAR 0 -18 42 MISG 30.49R LAGUARDIA APRT PTCLDY 1 -12 54 NW16G31 30.49R WCI -19 KENNEDY INTL PTCLDY 1 -19 38 NW22G36 30.48R WCI -21 NEWARK/LIBERTY PTCLDY 1 -18 40 NW13G28 30.51R WCI -17 TETERBORO APRT PTCLDY -1 -19 42 NW22G37 30.49R WCI -24 BNX BOT. GARD. N/A 0 -17 46 W13 30.49R WCI -18 >>>>>>>>>>>>>>>>>>>>>>>>>>>>>>>>> KEY <<<<<<<<<<<<<<<<<<<<<<<<<<<<<<< > SKY/WX - SKY CONDITION/ : R : WCI - WIND CHILL INDEX < > PRESENT WEATHER : E : VSB - VISIBILITY IN MILES < > TMP - TEMPERATURE IN DEG F : M : HX - HEAT INDEX < > DP - DEW POINT TEMPERATURE : A : TC - TEMPERATURE IN < > RH - RELATIVE HUMIDITY : R : CELSIUS < > WIND - DIRECTION/SPEED (MPH) : K : VRB - VARIABLE WIND DIR < > PRES - PRESSURE (IN HG) : S : < >>>>>>>>>>>>>>>>>>>>>>>>>>>>>>>>> KEY <<<<<<<<<<<<<<<<<<<<<<<<<<<<<<<

USA.gov is the U.S. government's official web portal to all federal, state and local government web resources and services.